Weather in Tsipikan

Russia / Republic of Buryatia     54°49′18″N   112°36′46″E
temp.,
°C
wind,
m/s
gust,
m/s
humid.,
%
clouds,
%
prec.,
mm/h
press.,
hPa
HPBL,
m
10 may, mon
mon1023:00+1e225270 0.0 100910
02:000ne115812 0.0 101010
05:00−1ne116011 0.0 101010
08:00+3nne114981 0.0 1010516
11:00+5ne214095 0.3 10081771
14:00+8ene233094 0.5 10062424
17:00+8n1332100 0.1 10062263
20:00+5n574183 0.1 1009117
11 may, tue
tue1123:00+2n225494 0.0 101010
02:00+1n225943 0.0 101110
05:000nnw116586 0.0 101210
08:00+4nnw235336 0.0 1010616
11:00+7nnw343684 0.0 10082202
14:00+9nnw4531100 0.3 10062546
17:00+9nnw653075 0.0 10052273
20:00+5nw685295 0.1 1007184
12 may, wed
wed1223:00+3nnw356845 0.1 1009191
02:00−1nnw22855 0.1 101011
05:00−1nw11865 0.0 101131
08:00+2wnw565311 0.1 10081227
11:00+5nw6732100 0.2 10062763
14:00+5nw6631100 0.5 10042479
17:00+5n5529100 0.2 10042372
20:00+3n564098 0.3 1006978
13 may, thu
thu1323:00−1n345535 0.0 100957
02:00−3nnw22605 0.0 101036
05:00−3nw22620 0.0 101176
08:000nw35445 0.0 10091039
11:00+4n6633100 0.0 10072378
14:00+5n7634100 0.1 10072092
17:00+5nne653497 0.0 10072037
20:00+2nne585070 0.1 1009336
14 may, fri
fri1423:00−1ne226969 0.0 101213
02:00−2nne227826 0.0 101228
05:00−3n228236 0.0 101242
08:00+1n3455100 0.0 10111117
11:00+3nne4440100 0.1 10091713
14:00+5n5533100 0.1 10062192
17:00+6n7635100 0.0 10061942
20:00+3n5748100 0.0 1008253